Wetterdaten: Samstag, 05.12.2015
Datum Zeit Temp. A. Feuchte A. Luftdruck Regen Wind Richtung Richtung Sonnenschein ET UV Solar Taupunkt Windchill Windben Empfang
05.12.2015 00:00 4,1 C 96 % 1035,9 hPa 0,0 l/m 5,2 km/h (1 Bft) N-NO 26 0 min 0,000 mm 0,0 UV-I 0 W/m 3,5 C 4,1 C 9,7 km/h (2 Bft) 96,40 %
05.12.2015 00:05 4,0 C 96 % 1035,9 hPa 0,0 l/m 0,8 km/h (0 Bft) N-NO 24 0 min 0,000 mm 0,0 UV-I 0 W/m 3,4 C 4,0 C 4,8 km/h (1 Bft) 99,07 %
05.12.2015 00:10 3,9 C 96 % 1036,0 hPa 0,0 l/m 3,0 km/h (1 Bft) O-NO 57 0 min 0,000 mm 0,0 UV-I 0 W/m 3,3 C 3,9 C 6,4 km/h (2 Bft) 99,17 %
05.12.2015 00:15 3,7 C 96 % 1035,9 hPa 0,0 l/m 4,5 km/h (1 Bft) O-NO 78 0 min 0,000 mm 0,0 UV-I 0 W/m 3,1 C 3,7 C 6,4 km/h (2 Bft) 97,46 %
05.12.2015 00:20 3,7 C 96 % 1035,8 hPa 0,0 l/m 4,4 km/h (1 Bft) O 88 0 min 0,000 mm 0,0 UV-I 0 W/m 3,1 C 3,7 C 6,4 km/h (2 Bft) 99,15 %
05.12.2015 00:25 3,7 C 97 % 1035,9 hPa 0,0 l/m 2,3 km/h (1 Bft) O 90 0 min 0,000 mm 0,0 UV-I 0 W/m 3,3 C 3,7 C 4,8 km/h (1 Bft) 96,58 %
05.12.2015 00:30 3,7 C 96 % 1035,8 hPa 0,0 l/m 1,6 km/h (1 Bft) O 90 0 min 0,000 mm 0,0 UV-I 0 W/m 3,1 C 3,7 C 3,2 km/h (1 Bft) 94,07 %
05.12.2015 00:35 3,8 C 97 % 1035,8 hPa 0,0 l/m 2,4 km/h (1 Bft) O 90 0 min 0,000 mm 0,0 UV-I 0 W/m 3,4 C 3,8 C 4,8 km/h (1 Bft) 94,07 %
05.12.2015 00:40 3,8 C 97 % 1035,8 hPa 0,0 l/m 1,8 km/h (1 Bft) O 90 0 min 0,000 mm 0,0 UV-I 0 W/m 3,4 C 3,8 C 3,2 km/h (1 Bft) 94,87 %
05.12.2015 00:45 3,8 C 97 % 1035,7 hPa 0,0 l/m 0,8 km/h (0 Bft) O 90 0 min 0,000 mm 0,0 UV-I 0 W/m 3,4 C 3,8 C 1,6 km/h (1 Bft) 96,61 %
05.12.2015 00:50 3,8 C 97 % 1035,6 hPa 0,0 l/m 0,0 km/h (0 Bft) O 90 0 min 0,000 mm 0,0 UV-I 0 W/m 3,4 C 3,8 C 0,0 km/h (0 Bft) 96,33 %
05.12.2015 00:55 3,9 C 96 % 1035,6 hPa 0,0 l/m 0,8 km/h (0 Bft) O 90 0 min 0,000 mm 0,0 UV-I 0 W/m 3,3 C 3,9 C 3,2 km/h (1 Bft) 97,44 %
05.12.2015 01:00 4,0 C 96 % 1035,5 hPa 0,0 l/m 0,7 km/h (0 Bft) O 90 0 min 0,000 mm 0,0 UV-I 0 W/m 3,4 C 4,0 C 3,2 km/h (1 Bft) 94,21 %
05.12.2015 01:05 3,9 C 96 % 1035,5 hPa 0,0 l/m 3,2 km/h (1 Bft) O 89 0 min 0,000 mm 0,0 UV-I 0 W/m 3,3 C 3,9 C 4,8 km/h (1 Bft) 97,52 %
05.12.2015 01:10 3,9 C 96 % 1035,5 hPa 0,0 l/m 4,2 km/h (1 Bft) O-NO 63 0 min 0,000 mm 0,0 UV-I 0 W/m 3,3 C 3,9 C 6,4 km/h (2 Bft) 99,15 %
05.12.2015 01:15 3,9 C 96 % 1035,5 hPa 0,0 l/m 3,7 km/h (1 Bft) O-NO 77 0 min 0,000 mm 0,0 UV-I 0 W/m 3,3 C 3,9 C 6,4 km/h (2 Bft) 98,13 %
05.12.2015 01:20 3,9 C 96 % 1035,6 hPa 0,0 l/m 1,6 km/h (1 Bft) O-NO 77 0 min 0,000 mm 0,0 UV-I 0 W/m 3,3 C 3,9 C 3,2 km/h (1 Bft) 100,00 %
05.12.2015 01:25 4,0 C 96 % 1035,6 hPa 0,0 l/m 2,9 km/h (1 Bft) O 88 0 min 0,000 mm 0,0 UV-I 0 W/m 3,4 C 4,0 C 4,8 km/h (1 Bft) 100,00 %
05.12.2015 01:30 4,1 C 96 % 1035,5 hPa 0,0 l/m 1,5 km/h (1 Bft) SO 124 0 min 0,000 mm 0,0 UV-I 0 W/m 3,5 C 4,1 C 4,8 km/h (1 Bft) 100,00 %
05.12.2015 01:35 4,1 C 97 % 1035,4 hPa 0,0 l/m 0,4 km/h (0 Bft) SO 124 0 min 0,000 mm 0,0 UV-I 0 W/m 3,7 C 4,1 C 3,2 km/h (1 Bft) 97,44 %
05.12.2015 01:40 4,1 C 96 % 1035,4 hPa 0,0 l/m 1,9 km/h (1 Bft) N-NO 32 0 min 0,000 mm 0,0 UV-I 0 W/m 3,5 C 4,1 C 4,8 km/h (1 Bft) 99,15 %
05.12.2015 01:45 4,0 C 96 % 1035,4 hPa 0,0 l/m 3,9 km/h (1 Bft) NO 49 0 min 0,000 mm 0,0 UV-I 0 W/m 3,4 C 4,0 C 6,4 km/h (2 Bft) 98,21 %
05.12.2015 01:50 4,0 C 97 % 1035,5 hPa 0,0 l/m 3,1 km/h (1 Bft) SO 144 0 min 0,000 mm 0,0 UV-I 0 W/m 3,6 C 4,0 C 4,8 km/h (1 Bft) 100,00 %
05.12.2015 01:55 4,1 C 97 % 1035,5 hPa 0,0 l/m 2,2 km/h (1 Bft) S 174 0 min 0,000 mm 0,0 UV-I 0 W/m 3,7 C 4,1 C 4,8 km/h (1 Bft) 98,35 %
05.12.2015 02:00 4,1 C 97 % 1035,6 hPa 0,0 l/m 2,2 km/h (1 Bft) S 175 0 min 0,000 mm 0,0 UV-I 0 W/m 3,7 C 4,1 C 4,8 km/h (1 Bft) 98,29 %
05.12.2015 02:05 4,1 C 96 % 1035,5 hPa 0,0 l/m 1,1 km/h (1 Bft) S 175 0 min 0,000 mm 0,0 UV-I 0 W/m 3,5 C 4,1 C 3,2 km/h (1 Bft) 98,35 %
05.12.2015 02:10 4,1 C 96 % 1035,6 hPa 0,0 l/m 0,8 km/h (0 Bft) S 175 0 min 0,000 mm 0,0 UV-I 0 W/m 3,5 C 4,1 C 3,2 km/h (1 Bft) 97,32 %
05.12.2015 02:15 4,1 C 96 % 1035,6 hPa 0,0 l/m 1,2 km/h (1 Bft) S 175 0 min 0,000 mm 0,0 UV-I 0 W/m 3,5 C 4,1 C 3,2 km/h (1 Bft) 99,15 %
05.12.2015 02:20 4,2 C 96 % 1035,6 hPa 0,0 l/m 1,5 km/h (1 Bft) S 175 0 min 0,000 mm 0,0 UV-I 0 W/m 3,6 C 4,2 C 3,2 km/h (1 Bft) 98,35 %
05.12.2015 02:25 4,1 C 96 % 1035,6 hPa 0,0 l/m 0,8 km/h (0 Bft) S 175 0 min 0,000 mm 0,0 UV-I 0 W/m 3,5 C 4,1 C 1,6 km/h (1 Bft) 98,33 %
05.12.2015 02:30 4,2 C 96 % 1035,5 hPa 0,0 l/m 0,0 km/h (0 Bft) S 175 0 min 0,000 mm 0,0 UV-I 0 W/m 3,6 C 4,2 C 1,6 km/h (1 Bft) 98,17 %
05.12.2015 02:35 4,3 C 96 % 1035,5 hPa 0,0 l/m 0,0 km/h (0 Bft) S 175 0 min 0,000 mm 0,0 UV-I 0 W/m 3,7 C 4,3 C 0,0 km/h (0 Bft) 97,46 %
05.12.2015 02:40 4,2 C 96 % 1035,5 hPa 0,0 l/m 0,0 km/h (0 Bft) S 175 0 min 0,000 mm 0,0 UV-I 0 W/m 3,6 C 4,2 C 1,6 km/h (1 Bft) 98,31 %
05.12.2015 02:45 4,3 C 96 % 1035,4 hPa 0,0 l/m 0,7 km/h (0 Bft) S 175 0 min 0,000 mm 0,0 UV-I 0 W/m 3,7 C 4,3 C 3,2 km/h (1 Bft) 95,73 %
05.12.2015 02:50 4,4 C 95 % 1035,4 hPa 0,0 l/m 1,0 km/h (0 Bft) S 174 0 min 0,000 mm 0,0 UV-I 0 W/m 3,7 C 4,4 C 4,8 km/h (1 Bft) 95,76 %
05.12.2015 02:55 4,4 C 95 % 1035,4 hPa 0,0 l/m 1,8 km/h (1 Bft) S 174 0 min 0,000 mm 0,0 UV-I 0 W/m 3,7 C 4,4 C 4,8 km/h (1 Bft) 95,73 %
05.12.2015 03:00 4,4 C 96 % 1035,5 hPa 0,0 l/m 0,3 km/h (0 Bft) S 174 0 min 0,000 mm 0,0 UV-I 0 W/m 3,8 C 4,4 C 1,6 km/h (1 Bft) 97,46 %
05.12.2015 03:05 4,4 C 96 % 1035,4 hPa 0,0 l/m 0,1 km/h (0 Bft) S 174 0 min 0,000 mm 0,0 UV-I 0 W/m 3,8 C 4,4 C 1,6 km/h (1 Bft) 99,17 %
05.12.2015 03:10 4,4 C 96 % 1035,4 hPa 0,0 l/m 0,1 km/h (0 Bft) S 174 0 min 0,000 mm 0,0 UV-I 0 W/m 3,8 C 4,4 C 1,6 km/h (1 Bft) 97,30 %
05.12.2015 03:15 4,4 C 96 % 1035,3 hPa 0,0 l/m 1,6 km/h (1 Bft) S 174 0 min 0,000 mm 0,0 UV-I 0 W/m 3,8 C 4,4 C 3,2 km/h (1 Bft) 99,17 %
05.12.2015 03:20 4,5 C 96 % 1035,2 hPa 0,0 l/m 1,8 km/h (1 Bft) S 174 0 min 0,000 mm 0,0 UV-I 0 W/m 3,9 C 4,5 C 3,2 km/h (1 Bft) 99,15 %
05.12.2015 03:25 4,6 C 96 % 1035,0 hPa 0,0 l/m 3,3 km/h (1 Bft) O-SO 120 0 min 0,000 mm 0,0 UV-I 0 W/m 4,0 C 4,6 C 6,4 km/h (2 Bft) 100,00 %
05.12.2015 03:30 4,4 C 95 % 1035,0 hPa 0,0 l/m 2,5 km/h (1 Bft) S 186 0 min 0,000 mm 0,0 UV-I 0 W/m 3,7 C 4,4 C 4,8 km/h (1 Bft) 99,08 %
05.12.2015 03:35 4,3 C 95 % 1035,0 hPa 0,0 l/m 4,3 km/h (1 Bft) S-SW 196 0 min 0,000 mm 0,0 UV-I 0 W/m 3,6 C 4,3 C 8,0 km/h (2 Bft) 95,73 %
05.12.2015 03:40 4,3 C 95 % 1035,0 hPa 0,0 l/m 3,1 km/h (1 Bft) S-SW 198 0 min 0,000 mm 0,0 UV-I 0 W/m 3,6 C 4,3 C 4,8 km/h (1 Bft) 99,15 %
05.12.2015 03:45 4,3 C 95 % 1035,0 hPa 0,0 l/m 3,5 km/h (1 Bft) S 182 0 min 0,000 mm 0,0 UV-I 0 W/m 3,6 C 4,3 C 6,4 km/h (2 Bft) 99,17 %
05.12.2015 03:50 4,2 C 95 % 1034,9 hPa 0,0 l/m 1,8 km/h (1 Bft) S-SO 165 0 min 0,000 mm 0,0 UV-I 0 W/m 3,5 C 4,2 C 4,8 km/h (1 Bft) 100,00 %
05.12.2015 03:55 4,1 C 95 % 1034,9 hPa 0,0 l/m 0,7 km/h (0 Bft) S-SO 165 0 min 0,000 mm 0,0 UV-I 0 W/m 3,4 C 4,1 C 3,2 km/h (1 Bft) 99,17 %
05.12.2015 04:00 4,2 C 95 % 1034,8 hPa 0,0 l/m 0,4 km/h (0 Bft) S-SO 165 0 min 0,000 mm 0,0 UV-I 0 W/m 3,5 C 4,2 C 1,6 km/h (1 Bft) 98,29 %
05.12.2015 04:05 4,2 C 95 % 1034,8 hPa 0,0 l/m 0,7 km/h (0 Bft) S-SO 165 0 min 0,000 mm 0,0 UV-I 0 W/m 3,5 C 4,2 C 3,2 km/h (1 Bft) 98,06 %
05.12.2015 04:10 4,0 C 96 % 1034,9 hPa 0,0 l/m 1,4 km/h (1 Bft) S-SO 165 0 min 0,000 mm 0,0 UV-I 0 W/m 3,4 C 4,0 C 3,2 km/h (1 Bft) 98,31 %
05.12.2015 04:15 3,9 C 96 % 1034,8 hPa 0,0 l/m 0,7 km/h (0 Bft) S-SO 165 0 min 0,000 mm 0,0 UV-I 0 W/m 3,3 C 3,9 C 1,6 km/h (1 Bft) 99,07 %
05.12.2015 04:20 3,9 C 96 % 1034,8 hPa 0,0 l/m 0,2 km/h (0 Bft) S-SO 165 0 min 0,000 mm 0,0 UV-I 0 W/m 3,3 C 3,9 C 1,6 km/h (1 Bft) 97,46 %
05.12.2015 04:25 3,9 C 96 % 1034,8 hPa 0,0 l/m 0,0 km/h (0 Bft) S-SO 165 0 min 0,000 mm 0,0 UV-I 0 W/m 3,3 C 3,9 C 0,0 km/h (0 Bft) 99,15 %
05.12.2015 04:30 4,0 C 96 % 1034,7 hPa 0,0 l/m 0,2 km/h (0 Bft) S-SO 165 0 min 0,000 mm 0,0 UV-I 0 W/m 3,4 C 4,0 C 1,6 km/h (1 Bft) 96,58 %
05.12.2015 04:35 4,0 C 96 % 1034,8 hPa 0,0 l/m 0,2 km/h (0 Bft) S-SO 165 0 min 0,000 mm 0,0 UV-I 0 W/m 3,4 C 4,0 C 1,6 km/h (1 Bft) 98,31 %
05.12.2015 04:40 4,0 C 96 % 1034,8 hPa 0,0 l/m 0,0 km/h (0 Bft) S-SO 165 0 min 0,000 mm 0,0 UV-I 0 W/m 3,4 C 4,0 C 1,6 km/h (1 Bft) 96,58 %
05.12.2015 04:45 4,1 C 96 % 1034,8 hPa 0,0 l/m 0,2 km/h (0 Bft) S-SO 165 0 min 0,000 mm 0,0 UV-I 0 W/m 3,5 C 4,1 C 1,6 km/h (1 Bft) 96,69 %
05.12.2015 04:50 4,1 C 96 % 1034,7 hPa 0,0 l/m 2,9 km/h (1 Bft) NO 47 0 min 0,000 mm 0,0 UV-I 0 W/m 3,5 C 4,1 C 6,4 km/h (2 Bft) 95,41 %
05.12.2015 04:55 3,9 C 96 % 1034,7 hPa 0,0 l/m 3,5 km/h (1 Bft) NO 41 0 min 0,000 mm 0,0 UV-I 0 W/m 3,3 C 3,9 C 4,8 km/h (1 Bft) 97,44 %
05.12.2015 05:00 3,8 C 96 % 1034,7 hPa 0,0 l/m 3,6 km/h (1 Bft) NO 36 0 min 0,000 mm 0,0 UV-I 0 W/m 3,2 C 3,8 C 6,4 km/h (2 Bft) 96,61 %
05.12.2015 05:05 3,7 C 96 % 1034,7 hPa 0,0 l/m 2,5 km/h (1 Bft) NO 37 0 min 0,000 mm 0,0 UV-I 0 W/m 3,1 C 3,7 C 3,2 km/h (1 Bft) 94,92 %
05.12.2015 05:10 3,6 C 97 % 1034,6 hPa 0,0 l/m 2,7 km/h (1 Bft) O-NO 67 0 min 0,000 mm 0,0 UV-I 0 W/m 3,2 C 3,6 C 4,8 km/h (1 Bft) 97,50 %
05.12.2015 05:15 3,3 C 96 % 1034,5 hPa 0,0 l/m 2,9 km/h (1 Bft) O 82 0 min 0,000 mm 0,0 UV-I 0 W/m 2,7 C 3,3 C 4,8 km/h (1 Bft) 99,15 %
05.12.2015 05:20 3,3 C 97 % 1034,5 hPa 0,0 l/m 0,0 km/h (0 Bft) O 82 0 min 0,000 mm 0,0 UV-I 0 W/m 2,9 C 3,3 C 0,0 km/h (0 Bft) 100,00 %
05.12.2015 05:25 3,2 C 97 % 1034,7 hPa 0,0 l/m 0,4 km/h (0 Bft) O 82 0 min 0,000 mm 0,0 UV-I 0 W/m 2,8 C 3,2 C 3,2 km/h (1 Bft) 99,08 %
05.12.2015 05:30 3,2 C 97 % 1034,6 hPa 0,0 l/m 1,7 km/h (1 Bft) SO 132 0 min 0,000 mm 0,0 UV-I 0 W/m 2,8 C 3,2 C 3,2 km/h (1 Bft) 96,58 %
05.12.2015 05:35 3,2 C 97 % 1034,5 hPa 0,0 l/m 1,5 km/h (1 Bft) S-SO 150 0 min 0,000 mm 0,0 UV-I 0 W/m 2,8 C 3,2 C 3,2 km/h (1 Bft) 100,00 %
05.12.2015 05:40 2,9 C 97 % 1034,5 hPa 0,0 l/m 3,6 km/h (1 Bft) S-SO 150 0 min 0,000 mm 0,0 UV-I 0 W/m 2,5 C 2,9 C 6,4 km/h (2 Bft) 98,35 %
05.12.2015 05:45 2,8 C 97 % 1034,4 hPa 0,0 l/m 1,8 km/h (1 Bft) O 93 0 min 0,000 mm 0,0 UV-I 0 W/m 2,4 C 2,8 C 4,8 km/h (1 Bft) 100,00 %
05.12.2015 05:50 2,8 C 97 % 1034,5 hPa 0,0 l/m 0,5 km/h (0 Bft) O 93 0 min 0,000 mm 0,0 UV-I 0 W/m 2,4 C 2,8 C 3,2 km/h (1 Bft) 99,15 %
05.12.2015 05:55 2,8 C 97 % 1034,5 hPa 0,0 l/m 0,2 km/h (0 Bft) O 93 0 min 0,000 mm 0,0 UV-I 0 W/m 2,4 C 2,8 C 1,6 km/h (1 Bft) 99,15 %
05.12.2015 06:00 2,6 C 97 % 1034,5 hPa 0,0 l/m 0,4 km/h (0 Bft) NO 48 0 min 0,000 mm 0,0 UV-I 0 W/m 2,2 C 2,6 C 1,6 km/h (1 Bft) 100,00 %
05.12.2015 06:05 2,4 C 97 % 1034,4 hPa 0,0 l/m 2,4 km/h (1 Bft) N-NO 22 0 min 0,000 mm 0,0 UV-I 0 W/m 2,0 C 2,4 C 4,8 km/h (1 Bft) 98,31 %
05.12.2015 06:10 2,6 C 98 % 1034,4 hPa 0,0 l/m 2,9 km/h (1 Bft) N-NO 28 0 min 0,000 mm 0,0 UV-I 0 W/m 2,3 C 2,6 C 6,4 km/h (2 Bft) 99,08 %
05.12.2015 06:15 2,6 C 98 % 1034,4 hPa 0,0 l/m 4,4 km/h (1 Bft) NO 49 0 min 0,000 mm 0,0 UV-I 0 W/m 2,3 C 2,6 C 6,4 km/h (2 Bft) 100,00 %
05.12.2015 06:20 2,5 C 98 % 1034,3 hPa 0,0 l/m 3,4 km/h (1 Bft) NO 38 0 min 0,000 mm 0,0 UV-I 0 W/m 2,2 C 2,5 C 4,8 km/h (1 Bft) 99,17 %
05.12.2015 06:25 2,4 C 97 % 1034,4 hPa 0,0 l/m 3,8 km/h (1 Bft) N-NO 26 0 min 0,000 mm 0,0 UV-I 0 W/m 2,0 C 2,4 C 6,4 km/h (2 Bft) 100,00 %
05.12.2015 06:30 2,3 C 98 % 1034,6 hPa 0,0 l/m 2,5 km/h (1 Bft) N-NO 27 0 min 0,000 mm 0,0 UV-I 0 W/m 2,0 C 2,3 C 6,4 km/h (2 Bft) 100,00 %
05.12.2015 06:35 2,4 C 98 % 1034,6 hPa 0,0 l/m 5,2 km/h (1 Bft) N-NO 25 0 min 0,000 mm 0,0 UV-I 0 W/m 2,1 C 2,4 C 8,0 km/h (2 Bft) 100,00 %
05.12.2015 06:40 2,4 C 98 % 1034,7 hPa 0,0 l/m 4,7 km/h (1 Bft) N-NO 30 0 min 0,000 mm 0,0 UV-I 0 W/m 2,1 C 2,4 C 6,4 km/h (2 Bft) 99,19 %
05.12.2015 06:45 2,3 C 98 % 1034,6 hPa 0,0 l/m 4,7 km/h (1 Bft) N-NO 31 0 min 0,000 mm 0,0 UV-I 0 W/m 2,0 C 2,3 C 8,0 km/h (2 Bft) 94,21 %
05.12.2015 06:50 2,2 C 98 % 1034,6 hPa 0,0 l/m 3,1 km/h (1 Bft) NO 43 0 min 0,000 mm 0,0 UV-I 0 W/m 1,9 C 2,2 C 4,8 km/h (1 Bft) 96,61 %
05.12.2015 06:55 2,2 C 98 % 1034,6 hPa 0,0 l/m 1,7 km/h (1 Bft) NO 43 0 min 0,000 mm 0,0 UV-I 0 W/m 1,9 C 2,2 C 3,2 km/h (1 Bft) 97,22 %
05.12.2015 07:00 1,8 C 98 % 1034,6 hPa 0,0 l/m 2,6 km/h (1 Bft) O 84 0 min 0,000 mm 0,0 UV-I 0 W/m 1,5 C 1,8 C 4,8 km/h (1 Bft) 97,46 %
05.12.2015 07:05 1,7 C 98 % 1034,6 hPa 0,0 l/m 0,2 km/h (0 Bft) O 84 0 min 0,000 mm 0,0 UV-I 0 W/m 1,4 C 1,7 C 1,6 km/h (1 Bft) 94,92 %
05.12.2015 07:10 1,8 C 98 % 1034,6 hPa 0,0 l/m 0,1 km/h (0 Bft) O 84 0 min 0,000 mm 0,0 UV-I 0 W/m 1,5 C 1,8 C 1,6 km/h (1 Bft) 96,58 %
05.12.2015 07:15 1,8 C 98 % 1034,6 hPa 0,0 l/m 0,6 km/h (0 Bft) O-SO 103 0 min 0,000 mm 0,0 UV-I 0 W/m 1,5 C 1,8 C 4,8 km/h (1 Bft) 95,76 %
05.12.2015 07:20 1,7 C 98 % 1034,7 hPa 0,0 l/m 2,2 km/h (1 Bft) SO 130 0 min 0,000 mm 0,0 UV-I 0 W/m 1,4 C 1,7 C 4,8 km/h (1 Bft) 98,33 %
05.12.2015 07:25 1,7 C 98 % 1034,7 hPa 0,0 l/m 0,3 km/h (0 Bft) SO 130 0 min 0,000 mm 0,0 UV-I 0 W/m 1,4 C 1,7 C 1,6 km/h (1 Bft) 98,35 %
05.12.2015 07:30 1,8 C 98 % 1034,8 hPa 0,0 l/m 0,3 km/h (0 Bft) SO 130 0 min 0,000 mm 0,0 UV-I 0 W/m 1,5 C 1,8 C 1,6 km/h (1 Bft) 97,17 %
05.12.2015 07:35 1,7 C 98 % 1034,9 hPa 0,0 l/m 0,0 km/h (0 Bft) SO 130 0 min 0,000 mm 0,0 UV-I 0 W/m 1,4 C 1,7 C 0,0 km/h (0 Bft) 99,15 %
05.12.2015 07:40 1,9 C 98 % 1034,8 hPa 0,0 l/m 1,9 km/h (1 Bft) SO 137 0 min 0,000 mm 0,0 UV-I 0 W/m 1,6 C 1,9 C 6,4 km/h (2 Bft) 98,35 %
05.12.2015 07:45 2,1 C 98 % 1034,9 hPa 0,0 l/m 3,4 km/h (1 Bft) SO 142 0 min 0,000 mm 0,0 UV-I 0 W/m 1,8 C 2,1 C 6,4 km/h (2 Bft) 100,00 %
05.12.2015 07:50 2,6 C 98 % 1034,9 hPa 0,0 l/m 1,8 km/h (1 Bft) SO 140 0 min 0,000 mm 0,0 UV-I 0 W/m 2,3 C 2,6 C 4,8 km/h (1 Bft) 100,00 %
05.12.2015 07:55 2,8 C 98 % 1034,9 hPa 0,0 l/m 2,6 km/h (1 Bft) SO 138 0 min 0,000 mm 0,0 UV-I 3 W/m 2,5 C 2,8 C 6,4 km/h (2 Bft) 97,46 %
05.12.2015 08:00 2,8 C 98 % 1034,9 hPa 0,0 l/m 0,6 km/h (0 Bft) SO 138 0 min 0,000 mm 0,0 UV-I 6 W/m 2,5 C 2,8 C 3,2 km/h (1 Bft) 98,31 %
05.12.2015 08:05 2,8 C 98 % 1034,9 hPa 0,0 l/m 2,4 km/h (1 Bft) SO 145 0 min 0,000 mm 0,0 UV-I 8 W/m 2,5 C 2,8 C 4,8 km/h (1 Bft) 100,00 %
05.12.2015 08:10 2,8 C 98 % 1034,9 hPa 0,0 l/m 3,0 km/h (1 Bft) SO 144 0 min 0,000 mm 0,0 UV-I 14 W/m 2,5 C 2,8 C 4,8 km/h (1 Bft) 98,21 %
05.12.2015 08:15 2,8 C 98 % 1034,9 hPa 0,0 l/m 1,2 km/h (1 Bft) SO 143 0 min 0,000 mm 0,0 UV-I 16 W/m 2,5 C 2,8 C 3,2 km/h (1 Bft) 98,29 %
05.12.2015 08:20 2,5 C 98 % 1035,0 hPa 0,0 l/m 1,6 km/h (1 Bft) S-SW 213 0 min 0,000 mm 0,0 UV-I 19 W/m 2,2 C 2,5 C 6,4 km/h (2 Bft) 98,31 %
05.12.2015 08:25 2,5 C 98 % 1035,0 hPa 0,0 l/m 1,6 km/h (1 Bft) S-SW 205 0 min 0,000 mm 0,0 UV-I 30 W/m 2,2 C 2,5 C 3,2 km/h (1 Bft) 100,00 %
05.12.2015 08:30 2,5 C 98 % 1034,9 hPa 0,0 l/m 2,5 km/h (1 Bft) S-SW 208 0 min 0,000 mm 0,0 UV-I 23 W/m 2,2 C 2,5 C 6,4 km/h (2 Bft) 100,00 %
05.12.2015 08:35 2,8 C 98 % 1034,9 hPa 0,0 l/m 4,0 km/h (1 Bft) O-NO 66 0 min 0,000 mm 0,0 UV-I 24 W/m 2,5 C 2,8 C 11,3 km/h (2 Bft) 97,52 %
05.12.2015 08:40 2,9 C 98 % 1034,9 hPa 0,0 l/m 0,5 km/h (0 Bft) O-NO 63 0 min 0,000 mm 0,0 UV-I 36 W/m 2,6 C 2,9 C 3,2 km/h (1 Bft) 98,17 %
05.12.2015 08:45 3,1 C 97 % 1035,0 hPa 0,0 l/m 1,6 km/h (1 Bft) S-SO 152 0 min 0,000 mm 0,0 UV-I 45 W/m 2,7 C 3,1 C 4,8 km/h (1 Bft) 98,25 %
05.12.2015 08:50 3,2 C 97 % 1034,8 hPa 0,0 l/m 2,9 km/h (1 Bft) S-SW 201 0 min 0,000 mm 0,0 UV-I 56 W/m 2,8 C 3,2 C 8,0 km/h (2 Bft) 96,69 %
05.12.2015 08:55 3,3 C 97 % 1034,8 hPa 0,0 l/m 1,5 km/h (1 Bft) SW 217 5 min 0,000 mm 0,0 UV-I 92 W/m 2,9 C 3,3 C 4,8 km/h (1 Bft) 95,73 %
05.12.2015 09:00 3,3 C 97 % 1034,9 hPa 0,0 l/m 1,7 km/h (1 Bft) S-SW 210 5 min 0,025 mm 0,0 UV-I 103 W/m 2,9 C 3,3 C 3,2 km/h (1 Bft) 97,46 %
05.12.2015 09:05 3,6 C 97 % 1034,9 hPa 0,0 l/m 1,3 km/h (1 Bft) S-SW 210 5 min 0,000 mm 0,0 UV-I 113 W/m 3,2 C 3,6 C 4,8 km/h (1 Bft) 96,69 %
05.12.2015 09:10 3,8 C 96 % 1034,8 hPa 0,0 l/m 2,0 km/h (1 Bft) SW 230 5 min 0,000 mm 0,0 UV-I 123 W/m 3,2 C 3,8 C 3,2 km/h (1 Bft) 97,44 %
05.12.2015 09:15 3,9 C 96 % 1034,8 hPa 0,0 l/m 1,4 km/h (1 Bft) SW 230 5 min 0,000 mm 0,0 UV-I 133 W/m 3,3 C 3,9 C 3,2 km/h (1 Bft) 95,41 %
05.12.2015 09:20 4,2 C 96 % 1034,8 hPa 0,0 l/m 2,4 km/h (1 Bft) S-SW 206 5 min 0,000 mm 0,0 UV-I 141 W/m 3,6 C 4,2 C 4,8 km/h (1 Bft) 97,52 %
05.12.2015 09:25 4,3 C 96 % 1034,9 hPa 0,0 l/m 2,3 km/h (1 Bft) SW 236 5 min 0,000 mm 0,0 UV-I 150 W/m 3,7 C 4,3 C 4,8 km/h (1 Bft) 96,58 %
05.12.2015 09:30 4,6 C 95 % 1035,0 hPa 0,0 l/m 0,8 km/h (0 Bft) W-SW 238 5 min 0,000 mm 0,0 UV-I 158 W/m 3,9 C 4,6 C 3,2 km/h (1 Bft) 97,46 %
05.12.2015 09:35 4,6 C 95 % 1035,1 hPa 0,0 l/m 0,9 km/h (0 Bft) NW 317 5 min 0,000 mm 0,0 UV-I 162 W/m 3,9 C 4,6 C 3,2 km/h (1 Bft) 98,33 %
05.12.2015 09:40 4,6 C 95 % 1035,1 hPa 0,0 l/m 0,8 km/h (0 Bft) N-NW 327 5 min 0,000 mm 0,0 UV-I 169 W/m 3,9 C 4,6 C 3,2 km/h (1 Bft) 98,35 %
05.12.2015 09:45 4,8 C 95 % 1035,2 hPa 0,0 l/m 0,3 km/h (0 Bft) N-NW 327 5 min 0,000 mm 0,0 UV-I 179 W/m 4,1 C 4,8 C 1,6 km/h (1 Bft) 96,23 %
05.12.2015 09:50 4,9 C 95 % 1035,0 hPa 0,0 l/m 0,6 km/h (0 Bft) N-NW 327 5 min 0,000 mm 0,0 UV-I 187 W/m 4,2 C 4,9 C 3,2 km/h (1 Bft) 95,73 %
05.12.2015 09:55 4,9 C 94 % 1034,9 hPa 0,0 l/m 0,3 km/h (0 Bft) N-NW 327 5 min 0,000 mm 0,0 UV-I 190 W/m 4,0 C 4,9 C 1,6 km/h (1 Bft) 97,52 %
05.12.2015 10:00 5,1 C 94 % 1035,1 hPa 0,0 l/m 0,2 km/h (0 Bft) N-NW 327 5 min 0,051 mm 0,0 UV-I 199 W/m 4,2 C 5,1 C 1,6 km/h (1 Bft) 99,15 %
05.12.2015 10:05 5,3 C 94 % 1035,1 hPa 0,0 l/m 0,3 km/h (0 Bft) NW 319 5 min 0,000 mm 0,0 UV-I 208 W/m 4,4 C 5,3 C 1,6 km/h (1 Bft) 98,29 %
05.12.2015 10:10 5,3 C 94 % 1035,0 hPa 0,0 l/m 1,7 km/h (1 Bft) N 11 5 min 0,000 mm 0,5 UV-I 213 W/m 4,4 C 5,3 C 4,8 km/h (1 Bft) 97,52 %
05.12.2015 10:15 5,4 C 94 % 1034,8 hPa 0,0 l/m 1,9 km/h (1 Bft) N-NO 12 5 min 0,000 mm 0,5 UV-I 220 W/m 4,5 C 5,4 C 4,8 km/h (1 Bft) 98,29 %
05.12.2015 10:20 5,5 C 93 % 1034,8 hPa 0,0 l/m 0,2 km/h (0 Bft) N 11 5 min 0,000 mm 0,5 UV-I 227 W/m 4,5 C 5,5 C 3,2 km/h (1 Bft) 93,40 %
05.12.2015 10:25 5,7 C 94 % 1034,8 hPa 0,0 l/m 1,0 km/h (0 Bft) N 5 5 min 0,000 mm 0,5 UV-I 232 W/m 4,8 C 5,7 C 4,8 km/h (1 Bft) 92,56 %
05.12.2015 10:30 5,9 C 93 % 1034,7 hPa 0,0 l/m 1,8 km/h (1 Bft) N-NO 29 5 min 0,000 mm 0,5 UV-I 237 W/m 4,9 C 5,9 C 4,8 km/h (1 Bft) 97,44 %
05.12.2015 10:35 5,9 C 92 % 1034,5 hPa 0,0 l/m 3,6 km/h (1 Bft) NO 45 5 min 0,000 mm 0,6 UV-I 246 W/m 4,7 C 5,9 C 4,8 km/h (1 Bft) 95,76 %
05.12.2015 10:40 6,1 C 93 % 1034,6 hPa 0,0 l/m 2,5 km/h (1 Bft) NO 42 5 min 0,000 mm 0,6 UV-I 251 W/m 5,1 C 6,1 C 4,8 km/h (1 Bft) 96,61 %
05.12.2015 10:45 6,2 C 93 % 1034,5 hPa 0,0 l/m 1,9 km/h (1 Bft) NO 39 5 min 0,000 mm 0,6 UV-I 258 W/m 5,2 C 6,2 C 3,2 km/h (1 Bft) 97,44 %
05.12.2015 10:50 6,3 C 91 % 1034,3 hPa 0,0 l/m 2,2 km/h (1 Bft) NO 43 5 min 0,000 mm 0,6 UV-I 264 W/m 4,9 C 6,3 C 4,8 km/h (1 Bft) 98,35 %
05.12.2015 10:55 6,5 C 93 % 1034,3 hPa 0,0 l/m 0,7 km/h (0 Bft) N-NO 33 5 min 0,000 mm 0,7 UV-I 268 W/m 5,5 C 6,5 C 3,2 km/h (1 Bft) 95,73 %
05.12.2015 11:00 6,5 C 92 % 1034,3 hPa 0,0 l/m 1,3 km/h (1 Bft) N-NO 21 5 min 0,102 mm 0,7 UV-I 271 W/m 5,3 C 6,5 C 4,8 km/h (1 Bft) 97,46 %
05.12.2015 11:05 6,7 C 91 % 1034,3 hPa 0,0 l/m 1,6 km/h (1 Bft) N 5 5 min 0,000 mm 0,7 UV-I 274 W/m 5,3 C 6,7 C 4,8 km/h (1 Bft) 98,17 %
05.12.2015 11:10 6,9 C 92 % 1034,2 hPa 0,0 l/m 1,5 km/h (1 Bft) N 355 5 min 0,000 mm 0,7 UV-I 278 W/m 5,7 C 6,9 C 4,8 km/h (1 Bft) 100,00 %
05.12.2015 11:15 7,2 C 91 % 1034,1 hPa 0,0 l/m 0,9 km/h (0 Bft) NW 311 5 min 0,000 mm 0,7 UV-I 282 W/m 5,8 C 7,2 C 3,2 km/h (1 Bft) 96,61 %
05.12.2015 11:20 7,2 C 90 % 1034,1 hPa 0,0 l/m 1,9 km/h (1 Bft) N-NW 339 5 min 0,000 mm 0,7 UV-I 282 W/m 5,7 C 7,2 C 6,4 km/h (2 Bft) 93,39 %
05.12.2015 11:25 7,2 C 90 % 1034,0 hPa 0,0 l/m 5,4 km/h (1 Bft) NO 35 5 min 0,000 mm 0,7 UV-I 285 W/m 5,7 C 7,2 C 8,0 km/h (2 Bft) 94,02 %
05.12.2015 11:30 7,2 C 91 % 1034,0 hPa 0,0 l/m 6,6 km/h (2 Bft) N-NO 22 5 min 0,000 mm 0,7 UV-I 288 W/m 5,8 C 7,1 C 11,3 km/h (2 Bft) 95,04 %
05.12.2015 11:35 7,2 C 90 % 1033,8 hPa 0,0 l/m 5,7 km/h (1 Bft) NO 42 5 min 0,000 mm 0,7 UV-I 287 W/m 5,7 C 7,2 C 9,7 km/h (2 Bft) 100,00 %
05.12.2015 11:40 7,3 C 91 % 1033,8 hPa 0,0 l/m 4,9 km/h (1 Bft) N-NO 24 5 min 0,000 mm 0,7 UV-I 291 W/m 5,9 C 7,3 C 8,0 km/h (2 Bft) 97,44 %
05.12.2015 11:45 7,4 C 90 % 1033,7 hPa 0,0 l/m 3,9 km/h (1 Bft) N-NO 29 5 min 0,000 mm 0,7 UV-I 292 W/m 5,9 C 7,4 C 8,0 km/h (2 Bft) 97,46 %
05.12.2015 11:50 7,4 C 90 % 1033,6 hPa 0,0 l/m 3,5 km/h (1 Bft) N-NO 16 5 min 0,000 mm 0,7 UV-I 296 W/m 5,9 C 7,4 C 8,0 km/h (2 Bft) 95,83 %
05.12.2015 11:55 7,5 C 90 % 1033,6 hPa 0,0 l/m 3,0 km/h (1 Bft) N-NO 23 5 min 0,000 mm 0,7 UV-I 295 W/m 6,0 C 7,5 C 6,4 km/h (2 Bft) 95,76 %
05.12.2015 12:00 7,6 C 90 % 1033,4 hPa 0,0 l/m 3,6 km/h (1 Bft) NO 39 5 min 0,127 mm 0,7 UV-I 295 W/m 6,1 C 7,6 C 6,4 km/h (2 Bft) 98,31 %
05.12.2015 12:05 7,7 C 91 % 1033,2 hPa 0,0 l/m 3,4 km/h (1 Bft) N-NO 31 5 min 0,000 mm 0,7 UV-I 296 W/m 6,3 C 7,7 C 6,4 km/h (2 Bft) 95,83 %
05.12.2015 12:10 8,0 C 90 % 1033,1 hPa 0,0 l/m 5,2 km/h (1 Bft) NO 42 5 min 0,000 mm 0,7 UV-I 296 W/m 6,5 C 8,0 C 8,0 km/h (2 Bft) 97,25 %
05.12.2015 12:15 8,2 C 90 % 1033,2 hPa 0,0 l/m 2,5 km/h (1 Bft) N-NO 31 5 min 0,000 mm 0,7 UV-I 295 W/m 6,7 C 8,2 C 6,4 km/h (2 Bft) 98,31 %
05.12.2015 12:20 8,3 C 90 % 1033,2 hPa 0,0 l/m 3,1 km/h (1 Bft) N-NO 19 5 min 0,000 mm 0,7 UV-I 292 W/m 6,8 C 8,3 C 6,4 km/h (2 Bft) 98,37 %
05.12.2015 12:25 8,4 C 89 % 1033,1 hPa 0,0 l/m 1,8 km/h (1 Bft) N-NW 345 5 min 0,000 mm 0,7 UV-I 292 W/m 6,7 C 8,4 C 6,4 km/h (2 Bft) 97,46 %
05.12.2015 12:30 8,4 C 90 % 1033,0 hPa 0,0 l/m 2,8 km/h (1 Bft) N-NW 338 5 min 0,000 mm 0,7 UV-I 288 W/m 6,9 C 8,4 C 9,7 km/h (2 Bft) 100,00 %
05.12.2015 12:35 8,3 C 89 % 1033,1 hPa 0,0 l/m 1,7 km/h (1 Bft) N 5 5 min 0,000 mm 0,7 UV-I 287 W/m 6,6 C 8,3 C 3,2 km/h (1 Bft) 100,00 %
05.12.2015 12:40 8,2 C 90 % 1032,9 hPa 0,0 l/m 3,4 km/h (1 Bft) O-NO 76 5 min 0,000 mm 0,7 UV-I 282 W/m 6,7 C 8,2 C 8,0 km/h (2 Bft) 98,31 %
05.12.2015 12:45 8,3 C 89 % 1032,8 hPa 0,0 l/m 1,9 km/h (1 Bft) N-NO 13 5 min 0,000 mm 0,7 UV-I 281 W/m 6,6 C 8,3 C 6,4 km/h (2 Bft) 96,58 %
05.12.2015 12:50 8,3 C 89 % 1032,8 hPa 0,0 l/m 3,1 km/h (1 Bft) N 5 5 min 0,000 mm 0,7 UV-I 275 W/m 6,6 C 8,3 C 6,4 km/h (2 Bft) 99,17 %
05.12.2015 12:55 8,2 C 90 % 1032,8 hPa 0,0 l/m 4,4 km/h (1 Bft) N-NO 16 5 min 0,000 mm 0,6 UV-I 271 W/m 6,7 C 8,2 C 11,3 km/h (2 Bft) 97,46 %
05.12.2015 13:00 8,3 C 88 % 1032,5 hPa 0,0 l/m 5,9 km/h (2 Bft) N 5 5 min 0,127 mm 0,6 UV-I 268 W/m 6,4 C 8,3 C 12,9 km/h (3 Bft) 99,15 %
05.12.2015 13:05 8,3 C 88 % 1032,4 hPa 0,0 l/m 7,0 km/h (2 Bft) N-NO 23 5 min 0,000 mm 0,6 UV-I 267 W/m 6,4 C 7,8 C 12,9 km/h (3 Bft) 98,35 %
05.12.2015 13:10 8,3 C 89 % 1032,4 hPa 0,0 l/m 5,0 km/h (1 Bft) N-NO 19 5 min 0,000 mm 0,6 UV-I 264 W/m 6,6 C 8,3 C 14,5 km/h (3 Bft) 99,15 %
05.12.2015 13:15 8,5 C 88 % 1032,1 hPa 0,0 l/m 3,4 km/h (1 Bft) N-NO 17 5 min 0,000 mm 0,6 UV-I 258 W/m 6,6 C 8,5 C 8,0 km/h (2 Bft) 96,43 %
05.12.2015 13:20 8,5 C 87 % 1031,9 hPa 0,0 l/m 4,7 km/h (1 Bft) NO 38 5 min 0,000 mm 0,6 UV-I 250 W/m 6,5 C 8,5 C 9,7 km/h (2 Bft) 97,46 %
05.12.2015 13:25 8,5 C 88 % 1032,1 hPa 0,0 l/m 5,2 km/h (1 Bft) N-NO 33 5 min 0,000 mm 0,6 UV-I 247 W/m 6,6 C 8,5 C 8,0 km/h (2 Bft) 97,44 %
05.12.2015 13:30 8,6 C 88 % 1032,0 hPa 0,0 l/m 5,9 km/h (2 Bft) N-NO 19 5 min 0,000 mm 0,5 UV-I 242 W/m 6,7 C 8,6 C 12,9 km/h (3 Bft) 97,46 %
05.12.2015 13:35 8,5 C 87 % 1032,1 hPa 0,0 l/m 3,1 km/h (1 Bft) NW 314 5 min 0,000 mm 0,5 UV-I 235 W/m 6,5 C 8,5 C 8,0 km/h (2 Bft) 97,44 %
05.12.2015 13:40 8,6 C 87 % 1032,0 hPa 0,0 l/m 5,4 km/h (1 Bft) NW 315 5 min 0,000 mm 0,5 UV-I 228 W/m 6,6 C 8,6 C 12,9 km/h (3 Bft) 98,31 %
05.12.2015 13:45 8,6 C 87 % 1032,0 hPa 0,0 l/m 2,3 km/h (1 Bft) W-NW 293 5 min 0,000 mm 0,5 UV-I 222 W/m 6,6 C 8,6 C 6,4 km/h (2 Bft) 98,21 %
05.12.2015 13:50 8,7 C 87 % 1032,0 hPa 0,0 l/m 2,1 km/h (1 Bft) NW 319 5 min 0,000 mm 0,2 UV-I 213 W/m 6,7 C 8,7 C 6,4 km/h (2 Bft) 99,15 %
05.12.2015 13:55 8,6 C 87 % 1031,9 hPa 0,0 l/m 2,5 km/h (1 Bft) N-NO 17 5 min 0,000 mm 0,0 UV-I 205 W/m 6,6 C 8,6 C 8,0 km/h (2 Bft) 98,31 %
05.12.2015 14:00 8,7 C 86 % 1031,9 hPa 0,0 l/m 4,9 km/h (1 Bft) N 11 5 min 0,101 mm 0,0 UV-I 197 W/m 6,5 C 8,7 C 12,9 km/h (3 Bft) 99,06 %
05.12.2015 14:05 8,7 C 86 % 1031,8 hPa 0,0 l/m 5,5 km/h (1 Bft) N-NO 24 5 min 0,000 mm 0,0 UV-I 189 W/m 6,5 C 8,7 C 12,9 km/h (3 Bft) 97,73 %
05.12.2015 14:10 8,8 C 86 % 1031,6 hPa 0,0 l/m 4,2 km/h (1 Bft) NO 37 5 min 0,000 mm 0,0 UV-I 181 W/m 6,6 C 8,8 C 8,0 km/h (2 Bft) 100,00 %
05.12.2015 14:15 8,8 C 86 % 1031,6 hPa 0,0 l/m 5,3 km/h (1 Bft) N-NO 12 5 min 0,000 mm 0,0 UV-I 171 W/m 6,6 C 8,8 C 9,7 km/h (2 Bft) 99,11 %
05.12.2015 14:20 8,8 C 86 % 1031,7 hPa 0,0 l/m 5,5 km/h (1 Bft) N-NO 28 5 min 0,000 mm 0,0 UV-I 163 W/m 6,6 C 8,8 C 11,3 km/h (2 Bft) 99,10 %
05.12.2015 14:25 8,8 C 86 % 1031,4 hPa 0,0 l/m 6,4 km/h (2 Bft) NO 40 5 min 0,000 mm 0,0 UV-I 153 W/m 6,6 C 8,8 C 9,7 km/h (2 Bft) 99,15 %
05.12.2015 14:30 8,9 C 86 % 1031,3 hPa 0,0 l/m 4,7 km/h (1 Bft) NO 45 5 min 0,000 mm 0,0 UV-I 143 W/m 6,7 C 8,9 C 6,4 km/h (2 Bft) 99,19 %
05.12.2015 14:35 8,8 C 85 % 1031,2 hPa 0,0 l/m 4,3 km/h (1 Bft) N-NO 32 5 min 0,000 mm 0,0 UV-I 134 W/m 6,4 C 8,8 C 8,0 km/h (2 Bft) 97,46 %
05.12.2015 14:40 8,9 C 85 % 1031,0 hPa 0,0 l/m 2,2 km/h (1 Bft) N-NO 29 5 min 0,000 mm 0,0 UV-I 121 W/m 6,5 C 8,9 C 4,8 km/h (1 Bft) 100,00 %
05.12.2015 14:45 8,8 C 86 % 1031,2 hPa 0,0 l/m 2,4 km/h (1 Bft) N-NO 29 5 min 0,000 mm 0,0 UV-I 112 W/m 6,6 C 8,8 C 3,2 km/h (1 Bft) 100,00 %
05.12.2015 14:50 8,8 C 86 % 1031,3 hPa 0,0 l/m 1,9 km/h (1 Bft) N-NO 29 5 min 0,000 mm 0,0 UV-I 102 W/m 6,6 C 8,8 C 4,8 km/h (1 Bft) 96,61 %
05.12.2015 14:55 8,8 C 87 % 1031,4 hPa 0,0 l/m 2,6 km/h (1 Bft) O-NO 57 5 min 0,000 mm 0,0 UV-I 92 W/m 6,8 C 8,8 C 6,4 km/h (2 Bft) 97,25 %
05.12.2015 15:00 8,9 C 85 % 1031,4 hPa 0,0 l/m 4,1 km/h (1 Bft) NO 54 5 min 0,077 mm 0,0 UV-I 85 W/m 6,5 C 8,9 C 6,4 km/h (2 Bft) 97,44 %
05.12.2015 15:05 8,8 C 85 % 1031,3 hPa 0,0 l/m 3,6 km/h (1 Bft) O 80 5 min 0,000 mm 0,0 UV-I 76 W/m 6,4 C 8,8 C 6,4 km/h (2 Bft) 95,76 %
05.12.2015 15:10 8,7 C 85 % 1031,2 hPa 0,0 l/m 3,7 km/h (1 Bft) O-NO 62 5 min 0,000 mm 0,0 UV-I 69 W/m 6,3 C 8,7 C 6,4 km/h (2 Bft) 95,76 %
05.12.2015 15:15 8,8 C 85 % 1031,2 hPa 0,0 l/m 3,3 km/h (1 Bft) O-NO 63 0 min 0,000 mm 0,0 UV-I 60 W/m 6,4 C 8,8 C 6,4 km/h (2 Bft) 98,33 %
05.12.2015 15:20 8,8 C 85 % 1031,2 hPa 0,0 l/m 2,9 km/h (1 Bft) O-NO 57 0 min 0,000 mm 0,0 UV-I 53 W/m 6,4 C 8,8 C 4,8 km/h (1 Bft) 99,15 %
05.12.2015 15:25 8,6 C 85 % 1031,3 hPa 0,0 l/m 2,9 km/h (1 Bft) O-NO 57 0 min 0,000 mm 0,0 UV-I 46 W/m 6,2 C 8,6 C 4,8 km/h (1 Bft) 96,58 %
05.12.2015 15:30 8,6 C 86 % 1031,2 hPa 0,0 l/m 2,7 km/h (1 Bft) O-NO 57 0 min 0,000 mm 0,0 UV-I 39 W/m 6,4 C 8,6 C 4,8 km/h (1 Bft) 99,17 %
05.12.2015 15:35 8,4 C 87 % 1031,2 hPa 0,0 l/m 2,4 km/h (1 Bft) O-NO 57 0 min 0,000 mm 0,0 UV-I 33 W/m 6,4 C 8,4 C 3,2 km/h (1 Bft) 99,08 %
05.12.2015 15:40 8,3 C 87 % 1031,2 hPa 0,0 l/m 2,2 km/h (1 Bft) O-NO 57 0 min 0,000 mm 0,0 UV-I 27 W/m 6,3 C 8,3 C 3,2 km/h (1 Bft) 99,15 %
05.12.2015 15:45 8,1 C 88 % 1031,2 hPa 0,0 l/m 1,6 km/h (1 Bft) O-NO 57 0 min 0,000 mm 0,0 UV-I 24 W/m 6,2 C 8,1 C 3,2 km/h (1 Bft) 95,65 %
05.12.2015 15:50 8,0 C 89 % 1031,1 hPa 0,0 l/m 1,4 km/h (1 Bft) O-NO 57 5 min 0,000 mm 0,0 UV-I 20 W/m 6,3 C 8,0 C 3,2 km/h (1 Bft) 97,46 %
05.12.2015 15:55 7,8 C 88 % 1031,0 hPa 0,0 l/m 2,7 km/h (1 Bft) O-NO 71 5 min 0,000 mm 0,0 UV-I 18 W/m 5,9 C 7,8 C 4,8 km/h (1 Bft) 97,44 %
05.12.2015 16:00 7,3 C 90 % 1031,0 hPa 0,0 l/m 2,7 km/h (1 Bft) O-NO 71 0 min 0,025 mm 0,0 UV-I 15 W/m 5,8 C 7,3 C 4,8 km/h (1 Bft) 98,35 %
05.12.2015 16:05 7,0 C 90 % 1031,2 hPa 0,0 l/m 3,8 km/h (1 Bft) O-NO 71 0 min 0,000 mm 0,0 UV-I 11 W/m 5,5 C 7,0 C 6,4 km/h (2 Bft) 100,00 %
05.12.2015 16:10 7,3 C 91 % 1031,2 hPa 0,0 l/m 4,3 km/h (1 Bft) O-NO 71 0 min 0,000 mm 0,0 UV-I 8 W/m 5,9 C 7,3 C 6,4 km/h (2 Bft) 99,15 %
05.12.2015 16:15 7,4 C 90 % 1031,1 hPa 0,0 l/m 4,3 km/h (1 Bft) O-NO 71 0 min 0,000 mm 0,0 UV-I 7 W/m 5,9 C 7,4 C 6,4 km/h (2 Bft) 100,00 %
05.12.2015 16:20 7,6 C 90 % 1031,1 hPa 0,0 l/m 3,0 km/h (1 Bft) O-NO 71 0 min 0,000 mm 0,0 UV-I 6 W/m 6,1 C 7,6 C 4,8 km/h (1 Bft) 99,15 %
05.12.2015 16:25 7,4 C 90 % 1031,1 hPa 0,0 l/m 3,3 km/h (1 Bft) O-NO 71 0 min 0,000 mm 0,0 UV-I 5 W/m 5,9 C 7,4 C 4,8 km/h (1 Bft) 99,06 %
05.12.2015 16:30 7,0 C 90 % 1031,3 hPa 0,0 l/m 2,4 km/h (1 Bft) O-NO 71 0 min 0,000 mm 0,0 UV-I 1 W/m 5,5 C 7,0 C 4,8 km/h (1 Bft) 99,18 %
05.12.2015 16:35 6,7 C 91 % 1031,3 hPa 0,0 l/m 0,5 km/h (0 Bft) O-NO 71 0 min 0,000 mm 0,0 UV-I 0 W/m 5,3 C 6,7 C 1,6 km/h (1 Bft) 94,96 %
05.12.2015 16:40 5,9 C 92 % 1031,3 hPa 0,0 l/m 2,3 km/h (1 Bft) O-NO 71 0 min 0,000 mm 0,0 UV-I 0 W/m 4,7 C 5,9 C 4,8 km/h (1 Bft) 96,61 %
05.12.2015 16:45 5,6 C 94 % 1031,2 hPa 0,0 l/m 2,9 km/h (1 Bft) O-NO 71 0 min 0,000 mm 0,0 UV-I 0 W/m 4,7 C 5,6 C 4,8 km/h (1 Bft) 96,69 %
05.12.2015 16:50 5,7 C 95 % 1031,3 hPa 0,0 l/m 2,6 km/h (1 Bft) O-NO 71 0 min 0,000 mm 0,0 UV-I 0 W/m 5,0 C 5,7 C 4,8 km/h (1 Bft) 97,17 %
05.12.2015 16:55 5,6 C 94 % 1031,3 hPa 0,0 l/m 1,5 km/h (1 Bft) O-NO 71 0 min 0,000 mm 0,0 UV-I 0 W/m 4,7 C 5,6 C 3,2 km/h (1 Bft) 96,64 %
05.12.2015 17:00 5,5 C 95 % 1031,1 hPa 0,0 l/m 1,1 km/h (1 Bft) O-NO 71 0 min 0,000 mm 0,0 UV-I 0 W/m 4,8 C 5,5 C 3,2 km/h (1 Bft) 96,67 %
05.12.2015 17:05 5,4 C 95 % 1031,1 hPa 0,0 l/m 0,9 km/h (0 Bft) O-NO 71 0 min 0,000 mm 0,0 UV-I 0 W/m 4,7 C 5,4 C 1,6 km/h (1 Bft) 95,76 %
05.12.2015 17:10 5,2 C 95 % 1031,1 hPa 0,0 l/m 0,6 km/h (0 Bft) O-NO 71 0 min 0,000 mm 0,0 UV-I 0 W/m 4,5 C 5,2 C 3,2 km/h (1 Bft) 96,67 %
05.12.2015 17:15 5,2 C 96 % 1031,1 hPa 0,0 l/m 0,3 km/h (0 Bft) O-NO 71 0 min 0,000 mm 0,0 UV-I 0 W/m 4,6 C 5,2 C 1,6 km/h (1 Bft) 98,31 %
05.12.2015 17:20 5,4 C 96 % 1031,1 hPa 0,0 l/m 0,6 km/h (0 Bft) O-NO 71 0 min 0,000 mm 0,0 UV-I 0 W/m 4,8 C 5,4 C 1,6 km/h (1 Bft) 99,15 %
05.12.2015 17:25 5,3 C 95 % 1031,1 hPa 0,0 l/m 0,8 km/h (0 Bft) O-NO 71 0 min 0,000 mm 0,0 UV-I 0 W/m 4,6 C 5,3 C 1,6 km/h (1 Bft) 99,07 %
05.12.2015 17:30 5,0 C 95 % 1031,1 hPa 0,0 l/m 1,0 km/h (0 Bft) O-NO 71 0 min 0,000 mm 0,0 UV-I 0 W/m 4,3 C 5,0 C 1,6 km/h (1 Bft) 95,87 %
05.12.2015 17:35 4,7 C 96 % 1031,0 hPa 0,0 l/m 0,8 km/h (0 Bft) O-NO 71 0 min 0,000 mm 0,0 UV-I 0 W/m 4,1 C 4,7 C 3,2 km/h (1 Bft) 99,15 %
05.12.2015 17:40 4,9 C 97 % 1031,1 hPa 0,0 l/m 0,0 km/h (0 Bft) O-NO 71 0 min 0,000 mm 0,0 UV-I 0 W/m 4,5 C 4,9 C 0,0 km/h (0 Bft) 99,15 %
05.12.2015 17:45 4,6 C 96 % 1031,2 hPa 0,0 l/m 0,4 km/h (0 Bft) O-NO 71 0 min 0,000 mm 0,0 UV-I 0 W/m 4,0 C 4,6 C 1,6 km/h (1 Bft) 100,00 %
05.12.2015 17:50 4,8 C 97 % 1031,2 hPa 0,0 l/m 0,2 km/h (0 Bft) O-NO 71 0 min 0,000 mm 0,0 UV-I 0 W/m 4,4 C 4,8 C 1,6 km/h (1 Bft) 100,00 %
05.12.2015 17:55 4,7 C 97 % 1031,3 hPa 0,0 l/m 2,2 km/h (1 Bft) O-NO 71 0 min 0,000 mm 0,0 UV-I 0 W/m 4,3 C 4,7 C 3,2 km/h (1 Bft) 100,00 %
05.12.2015 18:00 4,6 C 96 % 1031,3 hPa 0,0 l/m 2,1 km/h (1 Bft) O-NO 71 0 min 0,000 mm 0,0 UV-I 0 W/m 4,0 C 4,6 C 3,2 km/h (1 Bft) 97,46 %
05.12.2015 18:05 4,7 C 97 % 1031,4 hPa 0,0 l/m 0,9 km/h (0 Bft) O-NO 71 0 min 0,000 mm 0,0 UV-I 0 W/m 4,3 C 4,7 C 1,6 km/h (1 Bft) 99,15 %
05.12.2015 18:10 4,6 C 97 % 1031,4 hPa 0,0 l/m 0,1 km/h (0 Bft) O-NO 71 0 min 0,000 mm 0,0 UV-I 0 W/m 4,2 C 4,6 C 1,6 km/h (1 Bft) 100,00 %
05.12.2015 18:15 4,5 C 97 % 1031,4 hPa 0,0 l/m 0,0 km/h (0 Bft) O-NO 71 0 min 0,000 mm 0,0 UV-I 0 W/m 4,1 C 4,5 C 0,0 km/h (0 Bft) 98,35 %
05.12.2015 18:20 4,3 C 97 % 1031,4 hPa 0,0 l/m 0,0 km/h (0 Bft) O-NO 71 0 min 0,000 mm 0,0 UV-I 0 W/m 3,9 C 4,3 C 1,6 km/h (1 Bft) 99,15 %
05.12.2015 18:25 4,6 C 97 % 1031,6 hPa 0,0 l/m 0,4 km/h (0 Bft) O-NO 71 0 min 0,000 mm 0,0 UV-I 0 W/m 4,2 C 4,6 C 1,6 km/h (1 Bft) 99,08 %
05.12.2015 18:30 4,7 C 97 % 1031,7 hPa 0,0 l/m 0,9 km/h (0 Bft) O-NO 71 0 min 0,000 mm 0,0 UV-I 0 W/m 4,3 C 4,7 C 3,2 km/h (1 Bft) 100,00 %
05.12.2015 18:35 4,5 C 97 % 1031,8 hPa 0,0 l/m 0,5 km/h (0 Bft) O-NO 71 0 min 0,000 mm 0,0 UV-I 0 W/m 4,1 C 4,5 C 3,2 km/h (1 Bft) 99,15 %
05.12.2015 18:40 4,3 C 97 % 1031,8 hPa 0,0 l/m 0,5 km/h (0 Bft) O-NO 71 0 min 0,000 mm 0,0 UV-I 0 W/m 3,9 C 4,3 C 3,2 km/h (1 Bft) 97,46 %
05.12.2015 18:45 4,1 C 97 % 1031,9 hPa 0,0 l/m 0,4 km/h (0 Bft) O-NO 71 0 min 0,000 mm 0,0 UV-I 0 W/m 3,7 C 4,1 C 1,6 km/h (1 Bft) 96,67 %
05.12.2015 18:50 4,3 C 97 % 1031,9 hPa 0,0 l/m 0,5 km/h (0 Bft) O-NO 71 0 min 0,000 mm 0,0 UV-I 0 W/m 3,9 C 4,3 C 1,6 km/h (1 Bft) 100,00 %
05.12.2015 18:55 4,2 C 97 % 1032,0 hPa 0,0 l/m 1,4 km/h (1 Bft) O-NO 71 0 min 0,000 mm 0,0 UV-I 0 W/m 3,8 C 4,2 C 3,2 km/h (1 Bft) 98,31 %
05.12.2015 19:00 4,3 C 97 % 1032,1 hPa 0,0 l/m 0,8 km/h (0 Bft) O-NO 71 0 min 0,000 mm 0,0 UV-I 0 W/m 3,9 C 4,3 C 1,6 km/h (1 Bft) 94,87 %
05.12.2015 19:05 4,6 C 98 % 1032,0 hPa 0,0 l/m 1,7 km/h (1 Bft) O-SO 123 0 min 0,000 mm 0,0 UV-I 0 W/m 4,3 C 4,6 C 3,2 km/h (1 Bft) 96,33 %
05.12.2015 19:10 4,5 C 98 % 1031,9 hPa 0,0 l/m 1,2 km/h (1 Bft) SO 139 0 min 0,000 mm 0,0 UV-I 0 W/m 4,2 C 4,5 C 3,2 km/h (1 Bft) 96,61 %
05.12.2015 19:15 4,6 C 98 % 1031,9 hPa 0,0 l/m 0,8 km/h (0 Bft) SO 144 0 min 0,000 mm 0,0 UV-I 0 W/m 4,3 C 4,6 C 1,6 km/h (1 Bft) 97,50 %
05.12.2015 19:20 4,6 C 98 % 1031,9 hPa 0,0 l/m 1,4 km/h (1 Bft) S-SO 167 0 min 0,000 mm 0,0 UV-I 0 W/m 4,3 C 4,6 C 4,8 km/h (1 Bft) 95,76 %
05.12.2015 19:25 4,3 C 98 % 1031,9 hPa 0,0 l/m 1,9 km/h (1 Bft) S-SO 163 0 min 0,000 mm 0,0 UV-I 0 W/m 4,0 C 4,3 C 4,8 km/h (1 Bft) 94,87 %
05.12.2015 19:30 4,2 C 97 % 1031,8 hPa 0,0 l/m 1,7 km/h (1 Bft) S-SO 163 0 min 0,000 mm 0,0 UV-I 0 W/m 3,8 C 4,2 C 6,4 km/h (2 Bft) 97,32 %
05.12.2015 19:35 4,3 C 97 % 1031,9 hPa 0,0 l/m 1,3 km/h (1 Bft) S-SO 165 0 min 0,000 mm 0,0 UV-I 0 W/m 3,9 C 4,3 C 4,8 km/h (1 Bft) 99,17 %
05.12.2015 19:40 4,3 C 98 % 1031,8 hPa 0,0 l/m 4,1 km/h (1 Bft) S-SO 158 0 min 0,000 mm 0,0 UV-I 0 W/m 4,0 C 4,3 C 8,0 km/h (2 Bft) 99,17 %
05.12.2015 19:45 4,3 C 98 % 1031,9 hPa 0,0 l/m 4,5 km/h (1 Bft) S 177 0 min 0,000 mm 0,0 UV-I 0 W/m 4,0 C 4,3 C 8,0 km/h (2 Bft) 97,46 %
05.12.2015 19:50 4,4 C 98 % 1031,9 hPa 0,0 l/m 5,3 km/h (1 Bft) S 181 0 min 0,000 mm 0,0 UV-I 0 W/m 4,1 C 4,4 C 8,0 km/h (2 Bft) 100,00 %
05.12.2015 19:55 4,7 C 98 % 1031,9 hPa 0,0 l/m 5,1 km/h (1 Bft) S-SO 160 0 min 0,000 mm 0,0 UV-I 0 W/m 4,4 C 4,7 C 9,7 km/h (2 Bft) 99,08 %
05.12.2015 20:00 4,5 C 97 % 1031,9 hPa 0,0 l/m 4,1 km/h (1 Bft) S 174 0 min 0,000 mm 0,0 UV-I 0 W/m 4,1 C 4,5 C 8,0 km/h (2 Bft) 100,00 %
05.12.2015 20:05 4,1 C 97 % 1031,9 hPa 0,0 l/m 2,3 km/h (1 Bft) S 191 0 min 0,000 mm 0,0 UV-I 0 W/m 3,7 C 4,1 C 6,4 km/h (2 Bft) 98,33 %
05.12.2015 20:10 3,6 C 96 % 1031,9 hPa 0,0 l/m 2,5 km/h (1 Bft) S 185 0 min 0,000 mm 0,0 UV-I 0 W/m 3,0 C 3,6 C 4,8 km/h (1 Bft) 100,00 %
05.12.2015 20:15 3,2 C 97 % 1031,9 hPa 0,0 l/m 3,5 km/h (1 Bft) S-SW 198 0 min 0,000 mm 0,0 UV-I 0 W/m 2,8 C 3,2 C 6,4 km/h (2 Bft) 98,31 %
05.12.2015 20:20 3,4 C 97 % 1031,9 hPa 0,0 l/m 3,4 km/h (1 Bft) S-SW 198 0 min 0,000 mm 0,0 UV-I 0 W/m 3,0 C 3,4 C 4,8 km/h (1 Bft) 99,15 %
05.12.2015 20:25 3,3 C 97 % 1031,9 hPa 0,0 l/m 3,5 km/h (1 Bft) S-SW 198 0 min 0,000 mm 0,0 UV-I 0 W/m 2,9 C 3,3 C 4,8 km/h (1 Bft) 99,15 %
05.12.2015 20:30 3,4 C 97 % 1031,9 hPa 0,0 l/m 2,8 km/h (1 Bft) S-SW 198 0 min 0,000 mm 0,0 UV-I 0 W/m 3,0 C 3,4 C 4,8 km/h (1 Bft) 97,25 %
05.12.2015 20:35 3,6 C 98 % 1031,8 hPa 0,0 l/m 3,7 km/h (1 Bft) S 180 0 min 0,000 mm 0,0 UV-I 0 W/m 3,3 C 3,6 C 4,8 km/h (1 Bft) 99,15 %
05.12.2015 20:40 3,3 C 97 % 1031,8 hPa 0,0 l/m 2,9 km/h (1 Bft) S 180 0 min 0,000 mm 0,0 UV-I 0 W/m 2,9 C 3,3 C 4,8 km/h (1 Bft) 99,17 %
05.12.2015 20:45 3,4 C 98 % 1031,8 hPa 0,0 l/m 2,5 km/h (1 Bft) S 180 0 min 0,000 mm 0,0 UV-I 0 W/m 3,1 C 3,4 C 4,8 km/h (1 Bft) 100,00 %
05.12.2015 20:50 3,6 C 98 % 1031,7 hPa 0,0 l/m 2,2 km/h (1 Bft) S 180 0 min 0,000 mm 0,0 UV-I 0 W/m 3,3 C 3,6 C 3,2 km/h (1 Bft) 98,31 %
05.12.2015 20:55 3,4 C 98 % 1031,7 hPa 0,0 l/m 2,7 km/h (1 Bft) S 180 0 min 0,000 mm 0,0 UV-I 0 W/m 3,1 C 3,4 C 3,2 km/h (1 Bft) 99,17 %
05.12.2015 21:00 3,3 C 97 % 1031,7 hPa 0,0 l/m 2,8 km/h (1 Bft) S 180 0 min 0,000 mm 0,0 UV-I 0 W/m 2,9 C 3,3 C 4,8 km/h (1 Bft) 94,87 %
05.12.2015 21:05 3,2 C 98 % 1031,6 hPa 0,0 l/m 2,5 km/h (1 Bft) S 180 0 min 0,000 mm 0,0 UV-I 0 W/m 2,9 C 3,2 C 3,2 km/h (1 Bft) 96,33 %
05.12.2015 21:10 3,3 C 98 % 1031,5 hPa 0,0 l/m 2,8 km/h (1 Bft) S 180 0 min 0,000 mm 0,0 UV-I 0 W/m 3,0 C 3,3 C 4,8 km/h (1 Bft) 97,52 %
05.12.2015 21:15 3,3 C 98 % 1031,4 hPa 0,0 l/m 2,8 km/h (1 Bft) S 180 0 min 0,000 mm 0,0 UV-I 0 W/m 3,0 C 3,3 C 3,2 km/h (1 Bft) 95,73 %
05.12.2015 21:20 3,2 C 98 % 1031,3 hPa 0,0 l/m 2,8 km/h (1 Bft) S 180 0 min 0,000 mm 0,0 UV-I 0 W/m 2,9 C 3,2 C 4,8 km/h (1 Bft) 95,87 %
05.12.2015 21:25 3,1 C 98 % 1031,3 hPa 0,0 l/m 2,9 km/h (1 Bft) S 180 0 min 0,000 mm 0,0 UV-I 0 W/m 2,8 C 3,1 C 4,8 km/h (1 Bft) 95,50 %
05.12.2015 21:30 3,1 C 98 % 1031,4 hPa 0,0 l/m 2,1 km/h (1 Bft) S 180 0 min 0,000 mm 0,0 UV-I 0 W/m 2,8 C 3,1 C 3,2 km/h (1 Bft) 94,21 %
05.12.2015 21:35 3,1 C 98 % 1031,3 hPa 0,0 l/m 3,2 km/h (1 Bft) S 180 0 min 0,000 mm 0,0 UV-I 0 W/m 2,8 C 3,1 C 4,8 km/h (1 Bft) 98,31 %
05.12.2015 21:40 2,7 C 97 % 1031,3 hPa 0,0 l/m 3,0 km/h (1 Bft) S 180 0 min 0,000 mm 0,0 UV-I 0 W/m 2,3 C 2,7 C 4,8 km/h (1 Bft) 95,73 %
05.12.2015 21:45 2,7 C 97 % 1031,3 hPa 0,0 l/m 3,8 km/h (1 Bft) S 187 0 min 0,000 mm 0,0 UV-I 0 W/m 2,3 C 2,7 C 4,8 km/h (1 Bft) 98,17 %
05.12.2015 21:50 2,8 C 98 % 1031,2 hPa 0,0 l/m 3,4 km/h (1 Bft) S 191 0 min 0,000 mm 0,0 UV-I 0 W/m 2,5 C 2,8 C 4,8 km/h (1 Bft) 96,61 %
05.12.2015 21:55 2,8 C 98 % 1031,2 hPa 0,0 l/m 2,5 km/h (1 Bft) S 191 0 min 0,000 mm 0,0 UV-I 0 W/m 2,5 C 2,8 C 4,8 km/h (1 Bft) 98,33 %
05.12.2015 22:00 2,9 C 98 % 1031,1 hPa 0,0 l/m 1,0 km/h (0 Bft) S 191 0 min 0,000 mm 0,0 UV-I 0 W/m 2,6 C 2,9 C 1,6 km/h (1 Bft) 98,31 %
05.12.2015 22:05 3,2 C 98 % 1031,1 hPa 0,0 l/m 0,2 km/h (0 Bft) S 191 0 min 0,000 mm 0,0 UV-I 0 W/m 2,9 C 3,2 C 1,6 km/h (1 Bft) 97,50 %
05.12.2015 22:10 3,3 C 98 % 1031,0 hPa 0,0 l/m 1,7 km/h (1 Bft) S 178 0 min 0,000 mm 0,0 UV-I 0 W/m 3,0 C 3,3 C 4,8 km/h (1 Bft) 99,15 %
05.12.2015 22:15 2,9 C 98 % 1031,0 hPa 0,0 l/m 0,5 km/h (0 Bft) S 178 0 min 0,000 mm 0,0 UV-I 0 W/m 2,6 C 2,9 C 1,6 km/h (1 Bft) 100,00 %
05.12.2015 22:20 2,6 C 98 % 1030,9 hPa 0,0 l/m 1,9 km/h (1 Bft) S 170 0 min 0,000 mm 0,0 UV-I 0 W/m 2,3 C 2,6 C 3,2 km/h (1 Bft) 99,15 %
05.12.2015 22:25 2,6 C 98 % 1030,9 hPa 0,0 l/m 1,7 km/h (1 Bft) S 170 0 min 0,000 mm 0,0 UV-I 0 W/m 2,3 C 2,6 C 3,2 km/h (1 Bft) 99,08 %
05.12.2015 22:30 2,1 C 98 % 1030,8 hPa 0,0 l/m 0,3 km/h (0 Bft) S 170 0 min 0,000 mm 0,0 UV-I 0 W/m 1,8 C 2,1 C 1,6 km/h (1 Bft) 98,31 %
05.12.2015 22:35 1,6 C 97 % 1030,6 hPa 0,0 l/m 0,0 km/h (0 Bft) S 170 0 min 0,000 mm 0,0 UV-I 0 W/m 1,2 C 1,6 C 0,0 km/h (0 Bft) 97,44 %
05.12.2015 22:40 1,7 C 98 % 1030,6 hPa 0,0 l/m 1,5 km/h (1 Bft) S 170 0 min 0,000 mm 0,0 UV-I 0 W/m 1,4 C 1,7 C 3,2 km/h (1 Bft) 100,00 %
05.12.2015 22:45 1,4 C 98 % 1030,5 hPa 0,0 l/m 2,6 km/h (1 Bft) S 170 0 min 0,000 mm 0,0 UV-I 0 W/m 1,1 C 1,4 C 3,2 km/h (1 Bft) 99,17 %
05.12.2015 22:50 1,2 C 98 % 1030,5 hPa 0,0 l/m 3,1 km/h (1 Bft) S 170 0 min 0,000 mm 0,0 UV-I 0 W/m 0,9 C 1,2 C 6,4 km/h (2 Bft) 99,15 %
05.12.2015 22:55 1,2 C 98 % 1030,4 hPa 0,0 l/m 1,3 km/h (1 Bft) S 170 0 min 0,000 mm 0,0 UV-I 0 W/m 0,9 C 1,2 C 3,2 km/h (1 Bft) 100,00 %
05.12.2015 23:00 1,2 C 98 % 1030,4 hPa 0,0 l/m 0,4 km/h (0 Bft) S 170 0 min 0,000 mm 0,0 UV-I 0 W/m 0,9 C 1,2 C 1,6 km/h (1 Bft) 98,29 %
05.12.2015 23:05 0,6 C 97 % 1030,3 hPa 0,0 l/m 0,9 km/h (0 Bft) S 170 0 min 0,000 mm 0,0 UV-I 0 W/m 0,2 C 0,6 C 3,2 km/h (1 Bft) 99,15 %
05.12.2015 23:10 0,4 C 97 % 1030,4 hPa 0,0 l/m 1,0 km/h (0 Bft) S 170 0 min 0,000 mm 0,0 UV-I 0 W/m -0,0 C 0,4 C 1,6 km/h (1 Bft) 99,15 %
05.12.2015 23:15 0,6 C 98 % 1030,4 hPa 0,0 l/m 2,1 km/h (1 Bft) S 170 0 min 0,000 mm 0,0 UV-I 0 W/m 0,3 C 0,6 C 3,2 km/h (1 Bft) 97,46 %
05.12.2015 23:20 0,6 C 98 % 1030,4 hPa 0,0 l/m 2,3 km/h (1 Bft) SO 144 0 min 0,000 mm 0,0 UV-I 0 W/m 0,3 C 0,6 C 3,2 km/h (1 Bft) 98,17 %
05.12.2015 23:25 0,7 C 98 % 1030,3 hPa 0,0 l/m 1,9 km/h (1 Bft) SO 144 0 min 0,000 mm 0,0 UV-I 0 W/m 0,4 C 0,7 C 3,2 km/h (1 Bft) 97,50 %
05.12.2015 23:30 0,6 C 98 % 1030,3 hPa 0,0 l/m 2,9 km/h (1 Bft) O 95 0 min 0,000 mm 0,0 UV-I 0 W/m 0,3 C 0,6 C 4,8 km/h (1 Bft) 96,61 %
05.12.2015 23:35 0,5 C 98 % 1030,2 hPa 0,0 l/m 1,6 km/h (1 Bft) O 95 0 min 0,000 mm 0,0 UV-I 0 W/m 0,2 C 0,5 C 3,2 km/h (1 Bft) 97,46 %
05.12.2015 23:40 0,6 C 98 % 1030,2 hPa 0,0 l/m 0,0 km/h (0 Bft) O 95 0 min 0,000 mm 0,0 UV-I 0 W/m 0,3 C 0,6 C 0,0 km/h (0 Bft) 95,73 %
05.12.2015 23:45 0,8 C 98 % 1030,2 hPa 0,0 l/m 0,0 km/h (0 Bft) O 95 0 min 0,000 mm 0,0 UV-I 0 W/m 0,5 C 0,8 C 0,0 km/h (0 Bft) 96,67 %
05.12.2015 23:50 0,8 C 98 % 1030,3 hPa 0,0 l/m 0,0 km/h (0 Bft) O 95 0 min 0,000 mm 0,0 UV-I 0 W/m 0,5 C 0,8 C 0,0 km/h (0 Bft) 96,58 %
05.12.2015 23:55 0,7 C 98 % 1030,2 hPa 0,0 l/m 0,0 km/h (0 Bft) O 95 0 min 0,000 mm 0,0 UV-I 0 W/m 0,4 C 0,7 C 0,0 km/h (0 Bft) 97,25 %
_ Min-Zeit 23:10 14:35 23:35 - 00:50 - - - - - - 23:10 23:10 00:50 10:25
Minimum _ 0,4 C 85 % 1030,2 hPa - 0,0 km/h (0 Bft) - - - - - - -0,0 C 0,4 C 0,0 km/h (0 Bft) 92,56 %
_ Max-Zeit 14:30 06:10 00:10 00:00 13:05 - - 08:55 12:00 10:55 11:50 12:30 14:30 13:10 01:20
Maximum _ 8,9 C 98 % 1036,0 hPa 0,0 l/m 7,0 km/h
N-NO (2 Bft)
- - 5 min 0,127 mm 0,7 UV-I 296 W/m 6,9 C 8,9 C 14,5 km/h
NO (3 Bft)
100,00 %
Durchschnitt _ 4,7 C 95 % 1033,2 hPa #0,0 l/m 2,2 km/h (1 Bft) S - #6:30 h #0,635 mm 0,6 UV-I 165 W/m 3,9 C 4,7 C 4,6 km/h (1 Bft) 97,91 %